Location: B?ogocice
(50.2413°N, 20.2361°E)
Time: 22:29:41
(UTC+00:00)

CENTAUR R/B - Pass Details

Date: 15 June 2024
Orbit: 666 x 1519 km, 63.4° (Epoch: 17 July)

Event Time Altitude Azimuth Distance (km) Brightness Sun altitude
Exits shadow 00:11:45 16° 229° (SW) 2,166 3.8 -13.7°
Maximum altitude 00:16:41 79° 315° (NW) 1,022 2.6 -13.4°
Drops below altitude 10° 00:24:02 10° 43° (NE) 3,112 6.4 -12.9°
Sets 00:27:06 0° 45° (NE) 4,210 7.3 -12.7°
